When you browse on this site, cookies collect data to enhance your experience and personalize the content and advertising you see.
Visit our Privacy Policy to learn more. By continuing to use the site, you agree to this use of cookies and data.
  • In Austria
  • List of Countries
  • For 7 days
  • Water Temperature
  • Weather Map
  • News
  • Weather Widgets
  • user-avatar
    Login

    Hourly Weather Bugojno

    Today, 3 June, Wednesday

    Time Temperature Precipitation Wind Pressure Humidity
    00:00 +10°C° 0 mm 1 mps 707 mmHg 94%
    01:00 +9°C° 0 mm 1 mps 707 mmHg 94%
    02:00 +9°C° 0 mm 1 mps 707 mmHg 94%
    03:00 +9°C° 0 mm 1 mps 706 mmHg 94%
    04:00 +9°C° 0 mm 1 mps 706 mmHg 94%
    05:00 +11°C° 0 mm 1 mps 706 mmHg 91%
    06:00 +12°C° 0 mm 1 mps 706 mmHg 87%
    07:00 +14°C° 0 mm 1 mps 707 mmHg 83%
    08:00 +16°C° 0.1 mm 1 mps 707 mmHg 74%
    09:00 +18°C° 0.1 mm 2 mps 707 mmHg 65%
    10:00 +19°C° 0.1 mm 3 mps 707 mmHg 56%
    11:00 +19°C° 0.3 mm 3 mps 707 mmHg 57%
    12:00 +20°C° 0.3 mm 3 mps 706 mmHg 59%
    13:00 +20°C° 0.3 mm 2 mps 706 mmHg 61%
    14:00 +20°C° 0.6 mm 2 mps 706 mmHg 65%
    15:00 +19°C° 0.6 mm 2 mps 706 mmHg 69%
    16:00 +20°C° 0.6 mm 1 mps 705 mmHg 73%
    17:00 +19°C° 0.4 mm 1 mps 705 mmHg 77%
    18:00 +16°C° 0.4 mm 2 mps 705 mmHg 82%
    19:00 +15°C° 0.4 mm 2 mps 705 mmHg 87%
    20:00 +14°C° 0 mm 2 mps 705 mmHg 89%
    21:00 +13°C° 0 mm 2 mps 705 mmHg 90%
    22:00 +12°C° 0 mm 2 mps 705 mmHg 92%
    23:00 +12°C° 0 mm 2 mps 705 mmHg 92%

    Tomorrow, 4 June, Thursday

    Time Temperature Precipitation Wind Pressure Humidity
    00:00 +12°C° 0 mm 2 mps 705 mmHg 92%
    01:00 +10°C° 0 mm 2 mps 705 mmHg 91%
    02:00 +10°C° 0 mm 2 mps 704 mmHg 91%
    03:00 +10°C° 0 mm 2 mps 704 mmHg 91%
    04:00 +10°C° 0 mm 2 mps 704 mmHg 91%
    05:00 +12°C° 0 mm 3 mps 704 mmHg 87%
    06:00 +13°C° 0 mm 3 mps 704 mmHg 83%
    07:00 +16°C° 0 mm 3 mps 704 mmHg 78%
    08:00 +18°C° 0 mm 4 mps 705 mmHg 72%
    09:00 +19°C° 0 mm 5 mps 705 mmHg 65%
    10:00 +21°C° 0 mm 5 mps 705 mmHg 58%
    11:00 +21°C° 0 mm 6 mps 705 mmHg 58%
    12:00 +21°C° 0 mm 7 mps 705 mmHg 58%
    13:00 +22°C° 0 mm 7 mps 705 mmHg 57%
    14:00 +21°C° 0 mm 7 mps 704 mmHg 58%
    15:00 +21°C° 0 mm 7 mps 704 mmHg 58%
    16:00 +20°C° 0 mm 7 mps 704 mmHg 58%
    17:00 +19°C° 0 mm 6 mps 703 mmHg 65%
    18:00 +17°C° 0 mm 5 mps 703 mmHg 71%
    19:00 +15°C° 0 mm 4 mps 703 mmHg 78%
    20:00 +15°C° 0 mm 4 mps 703 mmHg 81%
    21:00 +14°C° 0 mm 5 mps 703 mmHg 85%
    22:00 +14°C° 0 mm 5 mps 702 mmHg 88%
    23:00 +14°C° 0 mm 5 mps 702 mmHg 89%

    Day after tomorrow, 5 June, Friday

    Time Temperature Precipitation Wind Pressure Humidity
    00:00 +14°C° 0 mm 5 mps 702 mmHg 91%
    01:00 +14°C° 0 mm 5 mps 702 mmHg 92%
    02:00 +14°C° 0 mm 6 mps 702 mmHg 91%
    03:00 +14°C° 0 mm 6 mps 701 mmHg 90%
    04:00 +15°C° 0 mm 7 mps 701 mmHg 90%
    05:00 +15°C° 0.2 mm 7 mps 701 mmHg 90%
    06:00 +15°C° 0.2 mm 7 mps 701 mmHg 90%
    07:00 +16°C° 0.2 mm 7 mps 701 mmHg 90%
    08:00 +16°C° 0.7 mm 8 mps 701 mmHg 86%
    09:00 +17°C° 0.7 mm 9 mps 701 mmHg 83%
    10:00 +17°C° 0.7 mm 9 mps 700 mmHg 79%
    11:00 +17°C° 0.9 mm 8 mps 701 mmHg 80%
    12:00 +17°C° 0.9 mm 7 mps 701 mmHg 82%
    13:00 +17°C° 0.9 mm 6 mps 701 mmHg 84%
    14:00 +16°C° 1.2 mm 5 mps 701 mmHg 86%
    15:00 +16°C° 1.2 mm 5 mps 701 mmHg 88%
    16:00 +15°C° 1.2 mm 5 mps 700 mmHg 90%
    17:00 +15°C° 0.3 mm 4 mps 701 mmHg 91%
    18:00 +14°C° 0.3 mm 3 mps 701 mmHg 92%
    19:00 +15°C° 0.3 mm 2 mps 701 mmHg 93%
    20:00 +15°C° 0 mm 2 mps 702 mmHg 94%
    21:00 +14°C° 0 mm 2 mps 702 mmHg 95%
    22:00 +14°C° 0 mm 2 mps 703 mmHg 96%
    23:00 +13°C° 0 mm 2 mps 703 mmHg 96%

    6 June, Saturday

    Time Temperature Precipitation Wind Pressure Humidity
    00:00 +13°C° 0 mm 2 mps 703 mmHg 96%
    01:00 +13°C° 0 mm 2 mps 704 mmHg 97%
    02:00 +13°C° 0 mm 2 mps 704 mmHg 97%
    03:00 +13°C° 0 mm 2 mps 704 mmHg 97%
    04:00 +13°C° 0 mm 2 mps 705 mmHg 97%
    05:00 +14°C° 0 mm 2 mps 705 mmHg 94%
    06:00 +15°C° 0 mm 2 mps 706 mmHg 91%
    07:00 +16°C° 0 mm 2 mps 706 mmHg 88%
    08:00 +18°C° 0 mm 2 mps 707 mmHg 80%
    09:00 +19°C° 0 mm 2 mps 707 mmHg 72%
    10:00 +21°C° 0 mm 3 mps 708 mmHg 64%
    11:00 +21°C° 0 mm 3 mps 708 mmHg 62%
    12:00 +22°C° 0 mm 3 mps 708 mmHg 61%
    13:00 +22°C° 0 mm 3 mps 708 mmHg 59%
    14:00 +22°C° 0 mm 3 mps 707 mmHg 61%
    15:00 +22°C° 0 mm 3 mps 707 mmHg 62%
    16:00 +22°C° 0 mm 3 mps 707 mmHg 64%
    17:00 +20°C° 0 mm 3 mps 707 mmHg 71%
    18:00 +18°C° 0 mm 2 mps 707 mmHg 78%
    19:00 +17°C° 0 mm 2 mps 707 mmHg 85%
    20:00 +15°C° 0 mm 2 mps 707 mmHg 87%
    21:00 +14°C° 0 mm 2 mps 707 mmHg 90%
    22:00 +13°C° 0 mm 2 mps 707 mmHg 92%
    23:00 +13°C° 0 mm 2 mps 707 mmHg 90%

    7 June, Sunday

    Time Temperature Precipitation Wind Pressure Humidity
    00:00 +12°C° 0 mm 2 mps 707 mmHg 89%
    01:00 +12°C° 0 mm 2 mps 707 mmHg 87%
    02:00 +12°C° 0 mm 2 mps 707 mmHg 87%
    03:00 +12°C° 0 mm 2 mps 707 mmHg 88%
    04:00 +13°C° 0 mm 2 mps 707 mmHg 88%
    05:00 +14°C° 0 mm 2 mps 707 mmHg 85%
    06:00 +16°C° 0 mm 2 mps 708 mmHg 82%
    07:00 +18°C° 0 mm 2 mps 708 mmHg 79%
    08:00 +19°C° 0.5 mm 2 mps 708 mmHg 77%
    09:00 +20°C° 0.5 mm 2 mps 709 mmHg 76%
    10:00 +21°C° 0.5 mm 2 mps 709 mmHg 74%
    11:00 +23°C° 0.7 mm 2 mps 709 mmHg 74%
    12:00 +23°C° 0.7 mm 2 mps 709 mmHg 74%
    13:00 +23°C° 0.7 mm 2 mps 708 mmHg 74%
    14:00 +23°C° 0.4 mm 2 mps 708 mmHg 73%
    15:00 +22°C° 0.4 mm 3 mps 708 mmHg 73%
    16:00 +22°C° 0.4 mm 3 mps 708 mmHg 73%
    17:00 +20°C° 0.1 mm 2 mps 708 mmHg 79%
    18:00 +19°C° 0.1 mm 2 mps 708 mmHg 84%
    19:00 +18°C° 0.1 mm 2 mps 708 mmHg 90%
    20:00 +17°C° 0 mm 2 mps 708 mmHg 92%
    21:00 +16°C° 0 mm 2 mps 708 mmHg 94%
    22:00 +15°C° 0 mm 2 mps 708 mmHg 95%
    23:00 +14°C° 0 mm 2 mps 708 mmHg 95%

    8 June, Monday

    Time Temperature Precipitation Wind Pressure Humidity
    00:00 +14°C° 0 mm 2 mps 708 mmHg 94%
    01:00 +14°C° 0 mm 2 mps 708 mmHg 94%
    02:00 +14°C° 0 mm 2 mps 708 mmHg 93%
    03:00 +14°C° 0 mm 2 mps 707 mmHg 93%
    04:00 +14°C° 0 mm 2 mps 707 mmHg 92%
    05:00 +15°C° 0.4 mm 2 mps 708 mmHg 91%
    06:00 +16°C° 0.4 mm 1 mps 708 mmHg 90%
    07:00 +19°C° 0.4 mm 1 mps 708 mmHg 89%
    08:00 +19°C° 1.1 mm 1 mps 708 mmHg 87%
    09:00 +20°C° 1.1 mm 1 mps 708 mmHg 85%
    10:00 +21°C° 1.1 mm 1 mps 708 mmHg 83%
    11:00 +20°C° 1 mm 2 mps 708 mmHg 80%
    12:00 +21°C° 1 mm 2 mps 708 mmHg 77%
    13:00 +22°C° 1 mm 3 mps 708 mmHg 74%
    14:00 +23°C° 0.9 mm 2 mps 708 mmHg 76%
    15:00 +23°C° 0.9 mm 2 mps 708 mmHg 78%
    16:00 +21°C° 0.9 mm 2 mps 707 mmHg 80%
    17:00 +20°C° 0.6 mm 2 mps 707 mmHg 83%
    18:00 +20°C° 0.6 mm 1 mps 707 mmHg 87%
    19:00 +19°C° 0.6 mm 1 mps 707 mmHg 90%
    20:00 +18°C° 0.2 mm 1 mps 707 mmHg 91%
    21:00 +16°C° 0.2 mm 1 mps 707 mmHg 92%
    22:00 +15°C° 0.2 mm 1 mps 708 mmHg 92%
    23:00 +15°C° 0.1 mm 1 mps 708 mmHg 92%
    Show more